• en France
  • Liste des pays
  • À 7 jours
  • Température de l'eau
  • Carte satellitaire
  • Carte météo
  • Widgets météo
  • user-avatar
    Se connecter

    Météo par heure à Quibdó

    Ce jour, 22 Août, Mercredi

    Heure Température Précipitation Vent Pression Humidité
    00:00 +24°C° 0 mm 0 m/s 751 mmHg 94%
    01:00 +24°C° 0 mm 0 m/s 751 mmHg 94%
    02:00 +24°C° 0,5 mm 0 m/s 751 mmHg 93%
    03:00 +25°C° 0,5 mm 1 m/s 750 mmHg 92%
    04:00 +25°C° 0,5 mm 1 m/s 750 mmHg 92%
    05:00 +25°C° 0,1 mm 1 m/s 750 mmHg 91%
    06:00 +24°C° 0,1 mm 0 m/s 751 mmHg 90%
    07:00 +24°C° 0,1 mm 0 m/s 751 mmHg 88%
    08:00 +28°C° 0 mm 1 m/s 751 mmHg 83%
    09:00 +29°C° 0 mm 1 m/s 751 mmHg 78%
    10:00 +31°C° 0 mm 1 m/s 751 mmHg 73%
    11:00 +32°C° 0,4 mm 1 m/s 750 mmHg 71%
    12:00 +32°C° 0,4 mm 1 m/s 750 mmHg 70%
    13:00 +34°C° 0,4 mm 2 m/s 749 mmHg 68%
    14:00 +32°C° 1,6 mm 1 m/s 749 mmHg 74%
    15:00 +31°C° 1,6 mm 1 m/s 748 mmHg 79%
    16:00 +30°C° 1,6 mm 1 m/s 748 mmHg 85%
    17:00 +29°C° 2,1 mm 1 m/s 748 mmHg 88%
    18:00 +28°C° 2,1 mm 1 m/s 749 mmHg 92%
    19:00 +26°C° 2,1 mm 1 m/s 750 mmHg 95%
    20:00 +24°C° 0,6 mm 0 m/s 750 mmHg 95%
    21:00 +24°C° 0,6 mm 0 m/s 751 mmHg 95%
    22:00 +24°C° 0,6 mm 0 m/s 751 mmHg 94%
    23:00 +24°C° 0,3 mm 0 m/s 751 mmHg 94%

    Demain, 23 Août, Jeudi

    Heure Température Précipitation Vent Pression Humidité
    00:00 +23°C° 0,3 mm 0 m/s 751 mmHg 94%
    01:00 +25°C° 0,3 mm 1 m/s 751 mmHg 94%
    02:00 +25°C° 1,4 mm 1 m/s 751 mmHg 94%
    03:00 +25°C° 1,4 mm 1 m/s 750 mmHg 93%
    04:00 +25°C° 1,4 mm 1 m/s 750 mmHg 93%
    05:00 +23°C° 0,3 mm 0 m/s 750 mmHg 91%
    06:00 +23°C° 0,3 mm 0 m/s 751 mmHg 90%
    07:00 +24°C° 0,3 mm 0 m/s 751 mmHg 89%
    08:00 +27°C° 0,6 mm 1 m/s 751 mmHg 84%
    09:00 +29°C° 0,6 mm 1 m/s 751 mmHg 80%
    10:00 +30°C° 0,6 mm 1 m/s 752 mmHg 75%
    11:00 +31°C° 0,3 mm 1 m/s 751 mmHg 73%
    12:00 +31°C° 0,3 mm 1 m/s 750 mmHg 72%
    13:00 +32°C° 0,3 mm 2 m/s 749 mmHg 70%
    14:00 +31°C° 0,6 mm 1 m/s 749 mmHg 75%
    15:00 +30°C° 0,6 mm 1 m/s 748 mmHg 79%
    16:00 +29°C° 0,6 mm 1 m/s 748 mmHg 84%
    17:00 +28°C° 1,1 mm 1 m/s 748 mmHg 87%
    18:00 +27°C° 1,1 mm 1 m/s 749 mmHg 91%
    19:00 +24°C° 1,1 mm 0 m/s 750 mmHg 95%
    20:00 +24°C° 0,9 mm 0 m/s 750 mmHg 95%
    21:00 +24°C° 0,9 mm 0 m/s 751 mmHg 95%
    22:00 +23°C° 0,9 mm 0 m/s 752 mmHg 95%
    23:00 +23°C° 0,3 mm 0 m/s 751 mmHg 95%

    Après-demain, 24 Août, Vendredi

    Heure Température Précipitation Vent Pression Humidité
    00:00 +23°C° 0,3 mm 0 m/s 751 mmHg 95%
    01:00 +23°C° 0,3 mm 0 m/s 751 mmHg 94%
    02:00 +23°C° 0,6 mm 0 m/s 751 mmHg 94%
    03:00 +23°C° 0,6 mm 0 m/s 750 mmHg 94%
    04:00 +23°C° 0,6 mm 0 m/s 750 mmHg 93%
    05:00 +23°C° 0,1 mm 0 m/s 750 mmHg 92%
    06:00 +23°C° 0,1 mm 0 m/s 750 mmHg 91%
    07:00 +23°C° 0,1 mm 0 m/s 751 mmHg 90%
    08:00 +25°C° 0 mm 0 m/s 751 mmHg 85%
    09:00 +29°C° 0 mm 1 m/s 751 mmHg 79%
    10:00 +30°C° 0 mm 1 m/s 751 mmHg 74%
    11:00 +31°C° 0,1 mm 1 m/s 751 mmHg 72%
    12:00 +32°C° 0,1 mm 1 m/s 750 mmHg 69%
    13:00 +34°C° 0,1 mm 2 m/s 749 mmHg 67%
    14:00 +32°C° 1,5 mm 1 m/s 749 mmHg 73%
    15:00 +30°C° 1,5 mm 1 m/s 748 mmHg 80%
    16:00 +29°C° 1,5 mm 1 m/s 748 mmHg 87%
    17:00 +28°C° 2,4 mm 1 m/s 748 mmHg 90%
    18:00 +27°C° 2,4 mm 1 m/s 749 mmHg 93%
    19:00 +24°C° 2,4 mm 0 m/s 750 mmHg 96%
    20:00 +24°C° 1,5 mm 0 m/s 751 mmHg 95%
    21:00 +24°C° 1,5 mm 0 m/s 751 mmHg 95%
    22:00 +23°C° 1,5 mm 0 m/s 752 mmHg 95%
    23:00 +23°C° 0,2 mm 0 m/s 752 mmHg 95%

    25 Août, Samedi

    Heure Température Précipitation Vent Pression Humidité
    00:00 +23°C° 0,2 mm 0 m/s 751 mmHg 95%
    01:00 +23°C° 0,2 mm 0 m/s 751 mmHg 96%
    02:00 +23°C° 0,1 mm 0 m/s 751 mmHg 95%
    03:00 +23°C° 0,1 mm 0 m/s 751 mmHg 95%
    04:00 +23°C° 0,1 mm 0 m/s 751 mmHg 95%
    05:00 +23°C° 0 mm 0 m/s 751 mmHg 94%
    06:00 +23°C° 0 mm 0 m/s 751 mmHg 93%
    07:00 +23°C° 0 mm 0 m/s 751 mmHg 92%
    08:00 +25°C° 0 mm 0 m/s 751 mmHg 86%
    09:00 +27°C° 0 mm 0 m/s 752 mmHg 80%
    10:00 +31°C° 0 mm 1 m/s 752 mmHg 74%
    11:00 +31°C° 0,2 mm 1 m/s 751 mmHg 73%
    12:00 +31°C° 0,2 mm 1 m/s 750 mmHg 72%
    13:00 +32°C° 0,2 mm 1 m/s 749 mmHg 72%
    14:00 +31°C° 1,1 mm 1 m/s 749 mmHg 77%
    15:00 +30°C° 1,1 mm 1 m/s 748 mmHg 83%
    16:00 +29°C° 1,1 mm 1 m/s 748 mmHg 88%
    17:00 +28°C° 1,3 mm 1 m/s 749 mmHg 91%
    18:00 +27°C° 1,3 mm 1 m/s 749 mmHg 93%
    19:00 +24°C° 1,3 mm 0 m/s 750 mmHg 96%
    20:00 +24°C° 1,7 mm 0 m/s 751 mmHg 95%
    21:00 +24°C° 1,7 mm 0 m/s 751 mmHg 95%
    22:00 +24°C° 1,7 mm 0 m/s 752 mmHg 95%
    23:00 +23°C° 0,1 mm 0 m/s 752 mmHg 95%

    26 Août, Dimanche

    Heure Température Précipitation Vent Pression Humidité
    00:00 +23°C° 0,1 mm 0 m/s 751 mmHg 95%
    01:00 +23°C° 0,1 mm 0 m/s 751 mmHg 95%
    02:00 +23°C° 0,1 mm 0 m/s 751 mmHg 94%
    03:00 +23°C° 0,1 mm 0 m/s 751 mmHg 94%
    04:00 +23°C° 0,1 mm 0 m/s 750 mmHg 93%
    05:00 +23°C° 0 mm 0 m/s 751 mmHg 92%
    06:00 +23°C° 0 mm 0 m/s 751 mmHg 91%
    07:00 +24°C° 0 mm 0 m/s 751 mmHg 90%
    08:00 +26°C° 0 mm 0 m/s 751 mmHg 84%
    09:00 +30°C° 0 mm 1 m/s 751 mmHg 77%
    10:00 +32°C° 0 mm 1 m/s 751 mmHg 70%
    11:00 +32°C° 0,1 mm 1 m/s 750 mmHg 67%
    12:00 +33°C° 0,1 mm 1 m/s 750 mmHg 64%
    13:00 +34°C° 0,1 mm 1 m/s 749 mmHg 61%
    14:00 +33°C° 1,5 mm 1 m/s 748 mmHg 68%
    15:00 +31°C° 1,5 mm 1 m/s 748 mmHg 75%
    16:00 +30°C° 1,5 mm 1 m/s 748 mmHg 82%
    17:00 +29°C° 1,4 mm 1 m/s 748 mmHg 86%
    18:00 +28°C° 1,4 mm 1 m/s 749 mmHg 90%
    19:00 +26°C° 1,4 mm 1 m/s 750 mmHg 94%
    20:00 +26°C° 1,7 mm 1 m/s 751 mmHg 95%
    21:00 +24°C° 1,7 mm 0 m/s 751 mmHg 95%
    22:00 +24°C° 1,7 mm 0 m/s 752 mmHg 95%
    23:00 +24°C° 0,5 mm 0 m/s 751 mmHg 95%

    27 Août, Lundi

    Heure Température Précipitation Vent Pression Humidité
    00:00 +23°C° 0,5 mm 0 m/s 751 mmHg 95%
    01:00 +23°C° 0,5 mm 0 m/s 751 mmHg 95%
    02:00 +23°C° 0 mm 0 m/s 751 mmHg 94%
    03:00 +23°C° 0 mm 0 m/s 750 mmHg 94%
    04:00 +23°C° 0 mm 0 m/s 750 mmHg 93%
    05:00 +23°C° 0 mm 0 m/s 750 mmHg 92%
    06:00 +23°C° 0 mm 0 m/s 751 mmHg 91%
    07:00 +24°C° 0 mm 0 m/s 751 mmHg 89%
    08:00 +25°C° 0,1 mm 0 m/s 751 mmHg 83%
    09:00 +29°C° 0,1 mm 1 m/s 751 mmHg 78%
    10:00 +31°C° 0,1 mm 1 m/s 751 mmHg 72%
    11:00 +32°C° 0,3 mm 1 m/s 751 mmHg 70%
    12:00 +32°C° 0,3 mm 1 m/s 750 mmHg 68%
    13:00 +33°C° 0,3 mm 1 m/s 749 mmHg 66%
    14:00 +32°C° 1,7 mm 1 m/s 749 mmHg 72%
    15:00 +31°C° 1,7 mm 1 m/s 749 mmHg 79%
    16:00 +30°C° 1,7 mm 1 m/s 748 mmHg 86%
    17:00 +29°C° 1,3 mm 1 m/s 749 mmHg 89%
    18:00 +27°C° 1,3 mm 1 m/s 750 mmHg 92%
    19:00 +24°C° 1,3 mm 0 m/s 750 mmHg 95%
    20:00 +24°C° 0,1 mm 0 m/s 751 mmHg 95%
    21:00 +24°C° 0,1 mm 0 m/s 751 mmHg 95%
    22:00 +24°C° 0,1 mm 0 m/s 752 mmHg 95%
    23:00 +23°C° 0 mm 0 m/s 751 mmHg 94%
    Voir plus